Wahoo, NE

8:01 PM CDT on September 30, 2016 (GMT -0500)
Wahoo Municipal

Weather History for KAHQ - March, 2013

Change the Weather History Date:

Sunday, March 31, 2013

  Actual Average Record
Temperature  
Mean Temperature 46 °F -  
Max Temperature 59 °F 60 °F 91 °F (2012)
Min Temperature 33 °F 34 °F 22 °F (1969)
Degree Days  
Heating Degree Days 20    
Moisture  
Dew Point 33 °F    
Average Humidity 64    
Maximum Humidity 95    
Minimum Humidity 26    
Precipitation  
Precipitation 0.02 in - - ()
Sea Level Pressure  
Sea Level Pressure 30.00 in    
Wind  
Wind Speed 10 mph (NNW)    
Max Wind Speed 22 mph    
Max Gust Speed 31 mph    
Visibility 9 miles    
Events Rain , Snow    
Averages and records for this station are not official NWS values.
T = Trace of Precipitation, MM = Missing Value Source: NWS Daily Summary

Daily Weather History Graph

Daily Weather History Graph

Search for Another Location

Airport or City:

Trip Planner

Search our weather history database for the weather conditions in past years. The results will help you decide how hot, cold, wet, or windy it might be!

Date:

Astronomy

Mar. 31, 2013 Rise Set
Actual Time 7:10 AM CDT 7:50 PM CDT
Civil Twilight 6:42 AM CDT 8:18 PM CDT
Nautical Twilight 6:10 AM CDT 8:51 PM CDT
Astronomical Twilight 5:36 AM CDT 9:25 PM CDT
Moon 12:00 AM CDT (3/31) 9:57 AM CDT (3/31)
Length of Visible Light 13h 35m
Length of Day
12h 39m
Waning Gibbous, 77% of the Moon is Illuminated
Mar 31
Waning Gibbous
Apr 2
Last Quarter
Apr 10
New
Apr 18
First Quarter
Apr 25
Full

Hourly Weather History & Observations

Time (CDT) Temp. Windchill Dew Point Humidity Pressure Visibility Wind Dir Wind Speed Gust Speed Precip Events Conditions
12:15 AM 48.9 °F - 42.4 °F 78% 29.97 in 10.0 mi WNW 9.2 mph - N/A   Scattered Clouds
12:35 AM 50.0 °F - 42.8 °F 76% 29.97 in 10.0 mi WNW 9.2 mph - N/A   Scattered Clouds
12:55 AM 49.8 °F - 42.3 °F 75% 29.97 in 10.0 mi WNW 5.8 mph - N/A   Scattered Clouds
1:15 AM 49.3 °F - 41.9 °F 76% 29.97 in 10.0 mi West 5.8 mph - N/A   Clear
1:35 AM 48.9 °F - 41.5 °F 76% 29.97 in 10.0 mi NW 4.6 mph - N/A   Clear
1:55 AM 46.2 °F 45.0 °F 40.8 °F 81% 29.97 in 10.0 mi NNW 3.5 mph - N/A   Clear
2:15 AM 44.1 °F 42.5 °F 39.6 °F 84% 29.97 in 10.0 mi NW 3.5 mph - N/A   Clear
2:35 AM 42.8 °F 39.3 °F 39.2 °F 87% 29.97 in 10.0 mi NNW 5.8 mph - N/A   Clear
2:55 AM 41.5 °F 39.6 °F 38.5 °F 89% 29.97 in 10.0 mi NW 3.5 mph - N/A   Clear
3:15 AM 44.1 °F 40.8 °F 39.4 °F 84% 29.96 in 10.0 mi West 5.8 mph - N/A   Clear
3:35 AM 45.9 °F - 39.7 °F 79% 29.96 in 10.0 mi Calm Calm - N/A   Clear
3:55 AM 44.8 °F - 39.9 °F 83% 29.96 in 10.0 mi Calm Calm - N/A   Clear
4:15 AM 44.1 °F 42.5 °F 40.1 °F 86% 29.95 in 10.0 mi NW 3.5 mph - N/A   Clear
4:35 AM 44.6 °F 42.2 °F 39.9 °F 84% 29.95 in 10.0 mi WNW 4.6 mph - N/A   Clear
4:55 AM 43.5 °F 40.9 °F 39.0 °F 84% 29.95 in 10.0 mi NNW 4.6 mph - N/A   Clear
5:15 AM 37.8 °F 33.3 °F 35.1 °F 90% 29.95 in 10.0 mi North 5.8 mph - N/A   Clear
5:35 AM 37.4 °F 32.1 °F 35.4 °F 93% 29.96 in 10.0 mi NNW 6.9 mph - N/A   Clear
5:55 AM 39.9 °F 34.5 °F 37.9 °F 93% 29.96 in 10.0 mi NNW 8.1 mph - N/A   Clear
6:15 AM 39.4 °F 34.5 °F 37.0 °F 91% 29.97 in 10.0 mi North 6.9 mph - N/A   Clear
6:35 AM 37.2 °F 33.6 °F 35.2 °F 93% 29.97 in 10.0 mi NW 4.6 mph - N/A   Clear
6:55 AM 37.8 °F 31.8 °F 36.0 °F 93% 29.98 in 10.0 mi NW 8.1 mph - N/A   Clear
7:15 AM 38.5 °F 32.1 °F 36.7 °F 93% 29.98 in 10.0 mi NNW 9.2 mph - N/A   Clear
7:35 AM 38.7 °F 32.4 °F 36.3 °F 91% 29.99 in 10.0 mi NW 9.2 mph - N/A   Clear
7:55 AM 38.3 °F 33.9 °F 36.0 °F 91% 29.99 in 7.0 mi NW 5.8 mph - N/A   Clear
8:15 AM 39.4 °F 35.2 °F 37.4 °F 93% 30.00 in 10.0 mi NW 5.8 mph - N/A   Clear
8:35 AM 41.9 °F 36.9 °F 38.5 °F 88% 30.00 in 7.0 mi NW 8.1 mph - N/A   Clear
8:55 AM 43.9 °F 39.3 °F 38.8 °F 82% 30.00 in 10.0 mi NW 8.1 mph - N/A   Clear
9:15 AM 45.5 °F 39.9 °F 38.7 °F 77% 30.00 in 10.0 mi NW 11.5 mph - N/A   Clear
9:35 AM 46.8 °F - 38.3 °F 72% 30.00 in 10.0 mi NNW 10.4 mph 19.6 mph N/A   Clear
9:55 AM 47.5 °F - 36.9 °F 67% 30.00 in 10.0 mi NW 18.4 mph 21.9 mph N/A   Clear
10:15 AM 48.4 °F - 37.6 °F 66% 30.00 in 10.0 mi NNW 15.0 mph 24.2 mph N/A   Clear
10:35 AM 49.6 °F - 37.6 °F 63% 30.00 in 10.0 mi NW 17.3 mph 21.9 mph N/A   Clear
10:55 AM 50.5 °F - 35.1 °F 55% 30.00 in 10.0 mi NNW 18.4 mph 24.2 mph N/A   Clear
11:15 AM 51.4 °F - 34.7 °F 53% 30.00 in 10.0 mi North 19.6 mph 25.3 mph N/A   Clear
11:35 AM 52.3 °F - 33.3 °F 48% 30.01 in 10.0 mi NW 16.1 mph 21.9 mph N/A   Clear
11:55 AM 53.2 °F - 32.2 °F 45% 30.01 in 10.0 mi NNW 20.7 mph 25.3 mph N/A   Clear
12:15 PM 53.2 °F - 30.9 °F 43% 30.01 in 10.0 mi NW 20.7 mph 25.3 mph N/A   Clear
12:35 PM 54.5 °F - 27.9 °F 36% 30.01 in 10.0 mi NW 20.7 mph 27.6 mph N/A   Clear
12:55 PM 55.0 °F - 27.7 °F 35% 30.00 in 10.0 mi NW 19.6 mph 24.2 mph N/A   Clear
1:15 PM 55.6 °F - 26.4 °F 33% 30.00 in 10.0 mi NNW 21.9 mph 31.1 mph N/A   Clear
1:35 PM 56.5 °F - 26.6 °F 32% 30.00 in 10.0 mi NNW 13.8 mph 28.8 mph N/A   Clear
1:55 PM 57.0 °F - 27.3 °F 32% 30.00 in 10.0 mi North 17.3 mph 24.2 mph N/A   Clear
2:15 PM 56.5 °F - 25.0 °F 30% 30.00 in 10.0 mi NNW 16.1 mph 28.8 mph N/A   Clear
2:35 PM 57.2 °F - 25.2 °F 29% 29.99 in 10.0 mi NNW 15.0 mph 21.9 mph N/A   Clear
2:55 PM 57.2 °F - 23.9 °F 28% 29.99 in 10.0 mi NNW 13.8 mph 23.0 mph N/A   Clear
3:15 PM 57.2 °F - 23.2 °F 27% 29.98 in 10.0 mi NNW 12.7 mph 19.6 mph N/A   Clear
3:35 PM 58.5 °F - 23.5 °F 26% 29.97 in 10.0 mi NNW 15.0 mph 18.4 mph N/A   Clear
3:55 PM 58.1 °F - 24.3 °F 27% 29.97 in 10.0 mi North 13.8 mph - N/A   Clear
4:15 PM 58.3 °F - 23.5 °F 26% 29.97 in 10.0 mi North 9.2 mph 19.6 mph N/A   Clear
4:35 PM 58.1 °F - 25.2 °F 28% 29.96 in 10.0 mi NNW 15.0 mph 20.7 mph N/A   Clear
4:55 PM 58.8 °F - 25.7 °F 28% 29.96 in 10.0 mi NNW 8.1 mph - N/A   Clear
5:15 PM 57.7 °F - 24.8 °F 28% 29.96 in 10.0 mi North 9.2 mph - N/A   Clear
5:35 PM 56.7 °F - 25.2 °F 30% 29.96 in 10.0 mi North 9.2 mph - N/A   Clear
5:55 PM 57.4 °F - 25.0 °F 29% 29.95 in 10.0 mi NNE 6.9 mph - N/A   Clear
6:15 PM 54.9 °F - 27.3 °F 35% 29.95 in 10.0 mi NNE 12.7 mph - N/A   Clear
6:35 PM 53.4 °F - 25.9 °F 34% 29.95 in 10.0 mi NNE 15.0 mph - N/A   Clear
6:55 PM 51.1 °F - 25.9 °F 38% 29.96 in 10.0 mi North 15.0 mph - N/A   Clear
7:15 PM 50.0 °F - 28.0 °F 43% 29.97 in 10.0 mi North 11.5 mph - N/A   Mostly Cloudy
7:35 PM 48.9 °F - 29.3 °F 47% 29.99 in 10.0 mi North 11.5 mph - N/A   Overcast
7:55 PM 47.5 °F - 28.9 °F 49% 29.99 in 10.0 mi North 13.8 mph - N/A   Overcast
8:15 PM 46.8 °F - 29.1 °F 50% 30.01 in 10.0 mi North 15.0 mph - N/A   Overcast
8:35 PM 45.3 °F 37.3 °F 29.3 °F 54% 30.02 in 10.0 mi North 20.7 mph 29.9 mph N/A   Overcast
9:15 PM 40.5 °F 31.2 °F 33.1 °F 75% 30.07 in 10.0 mi North 19.6 mph 27.6 mph N/A Rain Light Rain
9:35 PM 37.6 °F 27.7 °F 33.4 °F 85% 30.10 in 7.0 mi North 18.4 mph 27.6 mph N/A Rain Light Rain
9:55 PM 35.4 °F 25.3 °F 32.9 °F 91% 30.12 in 5.0 mi North 17.3 mph - 0.01 in Snow Light Snow
10:15 PM 34.5 °F 25.7 °F 32.5 °F 92% 30.12 in 5.0 mi North 12.7 mph - 0.01 in Snow Light Snow
10:35 PM 34.0 °F 26.6 °F 32.4 °F 94% 30.13 in 5.0 mi North 9.2 mph - 0.01 in Snow Light Snow
10:55 PM 34.2 °F 24.4 °F 32.7 °F 94% 30.15 in 7.0 mi North 15.0 mph - 0.01 in Snow Light Snow
11:15 PM 33.8 °F 22.5 °F 32.2 °F 94% 30.15 in 5.0 mi North 19.6 mph 24.2 mph N/A Snow Light Snow
11:35 PM 33.1 °F 22.2 °F 31.8 °F 95% 30.15 in 2.5 mi North 17.3 mph 23.0 mph N/A Snow Light Snow